Whiteman AFB, MO

10:51 AM CDT on May 25, 2018 (GMT -0500)
Whiteman Air Force Base

Weather History for KSZL - June, 2012

Change the Weather History Date:

Wednesday, June 27, 2012

  Actual Average Record
Temperature  
Mean Temperature 86 °F -  
Max Temperature 99 °F 84 °F 99 °F (2012)
Min Temperature 72 °F 65 °F 55 °F (2006)
Cooling Degree Days 20    
Growing Degree Days 36 (Base 50)    
Moisture  
Dew Point 59 °F    
Average Humidity 43    
Maximum Humidity 75    
Minimum Humidity 30    
Precipitation  
Precipitation 0.00 in - - ()
Sea Level Pressure  
Sea Level Pressure 29.85 in    
Wind  
Wind Speed 13 mph (South)    
Max Wind Speed 20 mph    
Max Gust Speed 28 mph    
Visibility 10 miles    
Events      
Averages and records for this station are not official NWS values.
T = Trace of Precipitation, MM = Missing Value Source: NWS Daily Summary

Daily Weather History Graph

Daily Weather History Graph

Search for Another Location

Airport or City:

Astronomy

Jun. 27, 2012 Rise Set
Actual Time 5:51 AM CDT 8:43 PM CDT
Civil Twilight 5:19 AM CDT 9:14 PM CDT
Nautical Twilight 4:39 AM CDT 9:55 PM CDT
Astronomical Twilight 3:53 AM CDT 10:41 PM CDT
Moon 2:10 PM CDT (6/27) 12:48 AM CDT (6/27)
Length of Visible Light 15h 55m
Length of Day
14h 51m
First Quarter, 56% of the Moon is Illuminated
Jun 27
First Quarter
Jul 3
Full
Jul 10
Last Quarter
Jul 18
New
Jul 26
First Quarter

Hourly Weather History & Observations

Time (CDT) Temp. Heat Index Dew Point Humidity Pressure Visibility Wind Dir Wind Speed Gust Speed Precip Events Conditions
12:55 AM 77.5 °F - 49.6 °F 37% 29.82 in 10.0 mi SSE 10.4 mph - N/A   Clear
1:55 AM 76.1 °F - 49.8 °F 40% 29.82 in 10.0 mi SSE 11.5 mph - N/A   Clear
2:55 AM 74.5 °F - 50.2 °F 42% 29.81 in 10.0 mi South 11.5 mph - N/A   Clear
3:55 AM 73.9 °F - 51.1 °F 45% 29.81 in 10.0 mi South 11.5 mph - N/A   Clear
4:55 AM 73.6 °F - 51.3 °F 45% 29.81 in 10.0 mi South 11.5 mph - N/A   Clear
5:55 AM 72.3 °F - 50.5 °F 46% 29.84 in 10.0 mi South 9.2 mph - N/A   Clear
6:55 AM 72.3 °F - 50.2 °F 46% 29.86 in 10.0 mi SSE 10.4 mph - N/A   Clear
7:55 AM 75.6 °F - 51.3 °F 42% 29.89 in 10.0 mi South 11.5 mph - N/A   Clear
8:55 AM 80.6 °F - 49.6 °F 34% 29.89 in 10.0 mi South 13.8 mph - N/A   Clear
9:55 AM 84.2 °F - 49.6 °F 30% 29.89 in 10.0 mi South 18.4 mph - N/A   Clear
10:55 AM 88.9 °F 86.9 °F 54.9 °F 31% 29.88 in 10.0 mi SSW 18.4 mph 21.9 mph N/A   Clear
11:55 AM 91.8 °F 90.9 °F 59.2 °F 33% 29.88 in 10.0 mi SSW 15.0 mph - N/A   Clear
12:55 PM 94.1 °F 95.0 °F 62.2 °F 35% 29.88 in 10.0 mi SSW 12.7 mph 19.6 mph N/A   Clear
1:55 PM 95.9 °F 98.0 °F 64.4 °F 35% 29.87 in 10.0 mi SSW 15.0 mph - N/A   Clear
2:55 PM 97.2 °F 100.2 °F 65.5 °F 35% 29.86 in 10.0 mi SSW 16.1 mph 21.9 mph N/A   Clear
3:55 PM 98.6 °F 102.8 °F 66.2 °F 35% 29.84 in 10.0 mi South 17.3 mph - N/A   Clear
4:55 PM 99.1 °F 103.2 °F 66.6 °F 34% 29.83 in 10.0 mi SSW 19.6 mph 25.3 mph N/A   Clear
5:55 PM 98.4 °F 102.5 °F 66.2 °F 35% 29.82 in 10.0 mi SSW 19.6 mph - N/A   Clear
6:55 PM 96.8 °F 100.7 °F 66.9 °F 37% 29.83 in 10.0 mi SSW 17.3 mph 27.6 mph N/A   Clear
7:55 PM 92.3 °F 97.0 °F 68.9 °F 46% 29.83 in 10.0 mi South 13.8 mph - N/A   Clear
8:55 PM 85.1 °F 88.5 °F 68.5 °F 57% 29.84 in 10.0 mi South 10.4 mph - N/A   Clear
9:55 PM 80.4 °F 83.1 °F 68.2 °F 66% 29.85 in 10.0 mi South 10.4 mph - N/A   Clear
10:55 PM 77.5 °F - 68.9 °F 75% 29.86 in 10.0 mi South 8.1 mph - N/A   Clear
11:55 PM 79.5 °F - 69.3 °F 71% 29.86 in 10.0 mi SSW 8.1 mph - N/A   Clear